星链-1670 (STARLINK-1670 )

导读 | 豆包AI

STARLINK-1670是美国SpaceX公司星链(Starlink)星座的v1.0版本卫星,于2020年9月3日发射入轨。星链星座计划构建由上万颗近地卫星组成的全球卫星互联网系统,单颗星链v1.0卫星重量约260千克,配备氪离子推进系统与折叠太阳能板,可提供高速宽带网络服务,已成为全球规模最大的近地卫星星座组成部分,可服务全球偏远地区互联网接入需求。

基本信息
目录编号:
46370
目录名称:
STARLINK-1670
国际标识:
2020-062AX
轨道中心:
EARTH
卫星名称:
星链-1670
卫星全名:
星链-1670 (STARLINK-1670 )
卫星状态:
已陨落 最后检测时间 2025-02-08
发射日期:
2020-09-03 UTC
国别 :
美国 (US)
星等 :
--
轨道信息
数据来源 国际轨道数据
星历时间: 2025-02-08T22:00:42+0800
轨道信息已过期398天
半长轴: 6530.13km
偏心率: 0.0002171
轨道倾角: 53.040°
近地点辐角 285.226°
升交点赤经 280.342°
平近点角 177.972°
近地点: 150.577km
远地点: 153.413km
周期: 87.527分钟
每日圈数: 16.452051
详细信息
固有亮度:
5
最大亮度:
2.5
卫星平台:
Starlink V1.0
覆盖范围:
全球
运营商:
太空探索技术公司
运营商所在国:
美国
制造商(研发单位):
太空探索技术公司
制造商所在国:
美国
使用方式:
暂无
卫星简介
星链(Starlink)计划是由太空探索技术公司(SpaceX)提出的一个巨型低轨卫星互联网星座项目,计划在2019年至2024年间在太空搭建由约1.2万颗卫星组成的“星链”网络,其中1584颗将部署在地球上空550千米处的近地轨道,并从2020年开始工作。该卫星仍在工作。